Regional Weather Roundup
Issued by NWS Newport/Morehead, NC

Current Version | Previous Version | Graphics & Text | Print | Product List | Glossary On
Versions: 1 2 3 4 5 6 7 8 9 10 11 12 13 14 15 16 17 18 19 20 21 22 23 24 25 26 27 28 29 30 31 32 33 34 35 36 37 38 39 40 41 42 43 44 45 46 47 48 49 50
000 ASUS42 KMHX 052013 RWRMHX WEATHER ROUNDUP FOR EASTERN NORTH CAROLINA NATIONAL WEATHER SERVICE NEWPORT/MOREHEAD CITY NC 300 PM EST FRI FEB 05 2016 NOTE: "FAIR" INDICATES FEW OR NO CLOUDS BELOW 12,000 FEET WITH NO SIGNIFICANT WEATHER AND/OR OBSTRUCTIONS TO VISIBILITY NCZ015>017-031-032-045>047-102-103-052100- NORTH COAST CITY SKY/WX TMP DP RH WIND PRES REMARKS EDENTON PTSUNNY 47 32 56 N13G18 30.27S ELIZABETH CITY SUNNY 44 28 53 N22G29 30.26S KITTY HAWK PTCLDY 44 31 59 N10G23 30.24R MANTEO MOSUNNY 44 32 62 N15G25 30.25F $$ NCZ045>047-081-094-103-104-052100- CENTRAL COAST CITY SKY/WX TMP DP RH WIND PRES REMARKS FRISCO CLOUDY N/A N/A N/A N12G23 30.25S SWANQUARTER N/A 45 N/A N/A N14G21 30.24S $$ NCZ095-097-098-100-101-052100- SOUTHERN COAST CITY SKY/WX TMP DP RH WIND PRES REMARKS BEAUFORT CLOUDY 44 32 62 N13 30.28R CEDAR ISLAND N/A 43 N/A N/A NW16G28 30.33R JACKSONVILLE MOSUNNY 46 30 53 N13 30.28R PINEY ISLAND CLOUDY N/A N/A N/A N17 30.27R WILMINGTON MOSUNNY 49 31 49 N10 30.28S $$ NCZ011>013-027>030-043-044-078>080-089-090>093-098-052100- COASTAL PLAIN CITY SKY/WX TMP DP RH WIND PRES REMARKS AHOSKIE SUNNY 44 26 48 N9G16 30.27F CLINTON SUNNY 49 28 43 NW10 30.30S ELIZABETHTOWN SUNNY 49 24 38 N3 30.29S GOLDSBORO SUNNY 48 27 43 NW12G18 30.27R GREENVILLE MOSUNNY 46 30 53 N12 30.29R HAVELOCK PTSUNNY 45 29 53 N16 30.28R KENANSVILLE N/A 46 26 45 NW3 30.30R KINSTON MOSUNNY 46 30 53 N10G17 30.28R NEW BERN PTSUNNY 47 31 53 N10 30.29R RICHLANDS MOSUNNY 46 27 46 N7 30.29R ROCKY MOUNT SUNNY 46 25 43 NW14 30.28R WASHINGTON MOSUNNY 46 30 53 NW10 30.27S WHITEVILLE SUNNY 49 25 38 N3 30.28F $$ AMZ130-135-150-152-154-156-158-170-250-252-270-ANZ085-086-088-633-658-670-052100- MARINE OBSERVATIONS STATION/POSITION TIME TEMP WIND PRES WAVE SWELL AIR SEA DIR/SP/G HT/PER HT/PER (UTC) (F) (DEG/KT/KT) (MB) (FT/S) (FT/S) CHESAPEAKE LIGHT 2000 41 340/ 27/ 30 1024.9 64 E VA BEACH 1950 43 54 340/ 25/ 31 1023.0 11/ 9 7/ 9 DUCK 1900 42 45 340/ 23/ 28 1023.3 2 E DUCK 1911 45 N/A 7/ 8 2/11 OREGON INLET 1900 41 48 330/ 16/ 22 1024.2 13E OREGON INLT 2000 47 N/A 11/ 9 2/11 HATTERAS CG 1900 43 54 340/ 24/ 31 1023.8 DIAMOND BUOY 1950 69 340/ 25/ 31 1023.8 8/ 9 5/ 9 CAPE LOOKOUT NOT AVBL BEAUFORT LAB 1900 44 53 360/ 12/ 19 1023.6 30 SE NEW RVR IN 1908 47 65 1023.1 30 SE NEW RVR IN 1955 65 N/A 5/ 5 27 SE WRIGHTSVLE 1908 48 360/ 17/ 27 1023.4 5 SE WRIGHTSVLE NOT AVBL 225 S CAPE HAT 1950 59 69 350/ 23/ 29 N/A 12/ 8 41 SE CHARLESTON 1950 48 68 10/ 17/ 23 1024.9 6/ 6 2/10 $$

USA.gov is the U.S. government's official web portal to all federal, state and local government web resources and services.